User: anonymous   Login
Location: Unspecified
(0.0000°N, 0.0000°E)
Time: 11:22:56
(UTC+02:00)
Language:

NOAA 12 - Orbit

View from above orbital plane
View from above orbital plane
View from above satellite
View from above satellite

Ground track
Ground track

The orbit data is extracted from the following two-line orbital elements,

1 21263U 91032A   15211.53199887  .00000052  00000-0  40118-4 0  9994
2 21263 098.6275 237.8156 0014738 126.0030 351.5865 14.25770093258747
Epoch (UTC): 30 July 2015 12:46:04
Eccentricity: 0.0014738
inclination: 98.6275°
perigee height: 795 km
apogee height: 816 km
right ascension of ascending node: 237.8156°
argument of perigee: 126.0030°
revolutions per day: 14.25770093
mean anomaly at epoch: 351.5865°
orbit number at epoch: 25874

The dashed part of the orbit path shows where the satellite is in the earth's shadow,  

DLR